Regional Weather Roundup
Issued by NWS Upton, NY

Current Version | Previous Version | Graphics & Text | Print | Product List | Glossary Off
Versions: 1 2 3 4 5 6 7 8 9 10 11 12 13 14 15 16 17 18 19 20 21 22 23 24 25 26 27 28 29 30 31 32 33 34 35 36 37 38 39 40 41 42 43 44 45 46 47 48 49 50
810 ASUS41 KOKX 201708 RWROKX REGIONAL WEATHER ROUNDUP NATIONAL WEATHER SERVICE NEW YORK NY 1200 PM EST FRI JAN 20 2017 NOTE: "FAIR" INDICATES FEW OR NO CLOUDS BELOW 12,000 FEET WITH NO SIGNIFICANT WEATHER AND/OR OBSTRUCTIONS TO VISIBILITY. NYZ071-072-176-178-NJZ106-104-201800- NEW YORK CITY METRO AREA CITY SKY/WX TMP DP RH WIND PRES REMARKS Central Park CLOUDY 44 34 67 CALM 30.01F Wall St Helipt CLOUDY 44 33 65 CALM 30.00F Bronx Bot Gard NOT AVBL LaGuardia APRT CLOUDY 44 34 67 NE10 29.99F Kennedy INTL CLOUDY 45 28 51 E5 30.00F Breezy Point N/A 41 N/A N/A E7 N/A Newark/Liberty CLOUDY 44 33 65 SE6 29.98F Teterboro CLOUDY 45 33 63 E5 29.98F $$ NYZ177-179-078>081-201800- LONG ISLAND NEW YORK CITY SKY/WX TMP DP RH WIND PRES REMARKS Jones Beach N/A 41 N/A N/A E7 N/A Matinecock PT N/A 41 N/A N/A NE6 N/A Farmingdale CLOUDY 43 33 68 CALM 30.00F MacArthur/ISP CLOUDY 43 32 65 W5 30.00F Shirley CLOUDY 42 32 67 W5 30.01F Westhampton CLOUDY 43 32 65 CALM 30.01F Southampton NOT AVBL Bridgehampton NOT AVBL East Hampton CLOUDY 40 32 72 CALM 30.01R Montauk N/A 41 33 73 NE6 30.01F $$ NYZ052-065-067-201800- HUDSON VALLEY CITY SKY/WX TMP DP RH WIND PRES REMARKS White Plains CLOUDY 41 32 70 SE6 29.98F Newburgh CLOUDY 39 32 75 SE6 29.98F WCI 35 Montgomery CLOUDY 41 31 67 CALM 29.96F Poughkeepsie CLOUDY 39 30 70 SE5 29.98F Albany CLOUDY 38 30 73 SE8 29.97F WCI 32 $$ NJZ001-105-106-008-010-013-015-019>022-104-201800- NEW JERSEY CITY SKY/WX TMP DP RH WIND PRES REMARKS Newark/Liberty CLOUDY 44 33 65 SE6 29.98F Teterboro CLOUDY 45 33 63 E5 29.98F Caldwell CLOUDY 43 32 65 S6 29.99F Somerville CLOUDY 44 35 70 S8 29.97F Linden N/A 43 32 66 CALM 30.00F Sussex CLOUDY 40 34 79 CALM 29.96F Andover N/A 40 32 73 VRB6 29.96F Trenton CLOUDY 41 36 82 SW3 29.98F Millville RAIN 41 38 89 E3 29.97F FOG Atlantic City CLOUDY 43 36 76 CALM 29.98F Wrightstown CLOUDY 41 35 79 CALM 29.96F Toms River CLOUDY 44 37 76 MISG 30.00F Belmar CLOUDY 44 36 73 SE6 30.00F $$ PAZ047>061-062-071-201800- EASTERN PENNSYLVANIA CITY SKY/WX TMP DP RH WIND PRES REMARKS Philadelphia RAIN 40 35 83 NE5 29.98F Allentown CLOUDY 41 33 73 SE5 29.96F Scranton CLOUDY 42 35 76 S7 29.90F $$ CTZ002-004>006-009-010-012-RIZ004-006-007-MAZ004-011-015-201800- SOUTHERN NEW ENGLAND IN CT CITY SKY/WX TMP DP RH WIND PRES REMARKS Bradley INTL CLOUDY 40 30 67 SE6 29.99F Hartford CLOUDY 40 30 67 S5 30.00F Danbury CLOUDY 39 31 72 VRB5 29.99F Wtrbury/Oxford NOT AVBL Bridgeport CLOUDY 42 31 64 CALM 30.00F Meriden CLOUDY 42 29 59 S7 30.01F New Haven CLOUDY 41 34 76 S3 30.01F Chester CLOUDY 41 30 65 CALM 29.99F Groton CLOUDY 42 30 62 CALM 30.00F Wilimantic CLOUDY 41 29 62 CALM 30.00F IN RI CITY SKY/WX TMP DP RH WIND PRES REMARKS Providence PTSUNNY 41 29 62 CALM 30.00F Block Island NOT AVBL Westerly CLOUDY 43 28 55 CALM 30.00F IN MA CITY SKY/WX TMP DP RH WIND PRES REMARKS Boston CLOUDY 39 33 79 CALM 30.01F Worcester CLOUDY 35 26 69 VRB6 29.95F WCI 30 Westfield CLOUDY 39 30 70 VRB6 29.98F WCI 35 Provincetown CLOUDY 41 30 65 NW3 30.01F Nantucket CLOUDY 43 31 62 VRB3 29.99F $$ ANZ330-335-338-340-345-350-353-355-201800- COASTAL MARINE OBSERVATIONS STATION/POSITION TIME SKY/WX TEMP WIND PRES VSBY WAVE AIR SEA DIR/SP/G HT/PER (UTC) (F) (DEG/KT/KT) (MB) (MI) (FT/S) NY HARB ENTRANCE 1550 42 44 100/ 8/ 8 1016.8 4/12 20 S FIRE ISLAND 1650 43 46 60/ 4/ 6 1015.8 5/13 GREAT SOUTH BAY NOT AVBL 23 SSW MONTAUK P 1550 43 48 50/ 6/ 8 1016.9 4/11 15 E BARNEGAT LI 1630 47 N/A 5/11 HUDSON CANYON 1550 48 51 1016.3 5/10 KINGS POINT 1636 39 39 1015.9 EXECUTION ROCKS 1645 40 30/ 6/ 8 N/A CENTRAL LI SOUND 1615 40 60/ 6/ 8 N/A 0 EASTERN LI SOUND NOT AVBL ROBBINS REEF 1642 41 190/ 7/ 7 1015.9 $$ >>>>>>>>>>>>>>>>>>>>>>>>>>>> KEY <<<<<<<<<<<<<<<<<<<<<<<<<<< > < > SKY/WX - Sky Condition/Present Weather < > TMP - Temperature in Fahrenheit < > DP - Dew Point in Fahrenheit < > RH - Relative Humidity in Percent < > WIND - Direction (from) and Speed in MPH < > PRES - Mean Sea Level Pressure (inches of Hg) < > WCI - Wind Chill Index < > VSB - VISIBILITY IN MILES < > HX - HEAT INDEX < > TC - TEMPERATURE IN CELSIUS < > VRB - VARIABLE WIND DIRECTION < > < >>>>>>>>>>>>>>>>>>>>>>>>>>>> KEY <<<<<<<<<<<<<<<<<<<<<<<<<<<

USA.gov is the U.S. government's official web portal to all federal, state and local government web resources and services.